MOLNIYA 1-80 1 21118U 91012A 10066.54319369 .00000991 00000-0 10000-3 0 7776 2 21118 61.8823 229.9225 7219843 256.2284 20.6797 2.01001576139621 MOLNIYA 3-40 1 21196U 91022A 10067.31567188 -.00001291 00000-0 10000-3 0 1277 2 21196 61.7410 212.2694 7211110 258.6608 19.6342 2.00852733138944 MOLNIYA 1-81 1 21426U 91043A 10067.41921637 .00000267 00000-0 10000-3 0 2485 2 21426 61.9703 202.6519 7172072 268.3304 16.1136 2.00622060137209 MOLNIYA 3-41 1 21706U 91065A 10063.18163094 .00005878 15310-6 53730-3 0 5293 2 21706 62.5899 17.2717 7516240 279.3135 10.5201 2.01730948135267 MOLNIYA 3-42 1 22178U 92067A 10064.29551881 .00000244 00000-0 -62030-6 0 7912 2 22178 61.9350 156.3001 7258615 266.3293 16.1372 2.00646124127417 MOLNIYA 1-86 1 22671U 93035A 10067.09032007 -.00001400 00000-0 21523-3 0 2471 2 22671 62.1138 101.7336 7400853 272.8669 12.9177 2.03259771123378 MOLNIYA 3-45 1 22729U 93049A 10067.45103265 -.00001076 00000-0 00000-0 0 9802 2 22729 62.0596 244.1501 7290432 255.7439 20.1717 2.00258265121553 MOLNIYA 1-87 1 22949U 93079A 10067.75502599 -.00001422 00000-0 -12373-2 0 4613 2 22949 63.6672 22.1058 7331105 248.9608 23.4390 2.00846105118831 MOLNIYA 1-88 1 23420U 94081A 10067.45165944 .00000838 00000-0 -54827-4 0 659 2 23420 61.9393 194.4506 7307816 265.5490 15.9823 2.02255796111746 MOLNIYA 3-47 1 23642U 95042A 10066.86279859 .00000338 00000-0 39063-3 0 5178 2 23642 63.2346 359.9768 7418661 254.0336 19.7732 2.00629403106839 MOLNIYA 1-89 1 24273U 96045A 10066.65380857 .00003974 00000-0 32938-3 0 4443 2 24273 62.6601 261.2818 6978701 258.4734 22.0380 2.69583771101320 MOLNIYA 1-90 1 24960U 97054A 10067.48736118 .00000088 00000-0 46725-3 0 7360 2 24960 63.6666 48.6463 7402377 253.3328 20.2987 2.00662063 91286 MOLNIYA 3-49 1 25379U 98040A 10067.69721627 .00003386 93712-6 12349-3 0 587 2 25379 63.4475 11.7637 7533648 253.8379 18.7810 2.01250636 85637 MOLNIYA 1-91 1 25485U 98054A 10067.73090852 .00000184 00000-0 10000-3 0 8691 2 25485 63.8377 151.7592 6875555 258.2303 347.0615 2.00618128 83818 MOLNIYA 3-50 1 25847U 99036A 10067.50617797 -.00000119 00000-0 10000-3 0 8051 2 25847 63.6160 239.6577 6915391 265.1446 19.5398 2.00611362 78158 MOLNIYA 3-51 1 26867U 01030A 10067.79502038 .00000286 00000-0 00000-0 0 910 2 26867 64.1134 172.8581 6977395 263.7108 346.7497 2.00694612 63262 MOLNIYA 1-92 1 27707U 03011A 10067.77167662 .00000193 00000-0 10000-3 0 5144 2 27707 64.7695 177.6376 6974014 259.5995 327.9727 2.00541076 50809 MOLNIYA 3-53 1 27834U 03029A 10067.77219201 .00000194 00000-0 00000-0 0 3371 2 27834 64.8048 177.5249 6968910 260.1320 327.4915 2.00602866 49222 MOLNIYA 1-93 1 28163U 04005A 10067.56661659 .00000154 00000-0 10000-3 0 1588 2 28163 64.8796 255.5321 7069302 272.2215 15.9964 2.00564873 44347